Погода в Савусаву

Фиджи     16°46′48″S   179°20′16″E
темп.,
°C
ветер,
м/с
пор.,
м/с
влажн.,
%
обл.,
%
осадки,
мм/ч
давл.,
гПа
погр.,
м
15 апреля, чт
чт1500:00+25юв248774 0.9 1010443
03:00+25юв1289100 0.6 1009276
06:00+24вюв0188100 1.1 1010152
09:00+26всв118054 0.7 1011342
12:00+28ю32749 1.6 1010612
15:00+27ююв337733 0.8 1008668
18:00+26вюв348438 1.2 1010355
21:00+25в358811 0.4 1012341
16 апреля, пт
пт1600:00+25в358831 0.8 1012373
03:00+25в358780 0.3 1011472
06:00+24в358627 0.3 1011475
09:00+27вюв457531 0.0 1013845
12:00+28юв446857 0.1 1011916
15:00+27юв447025 0.1 1010751
18:00+25вюв35785 0.1 1011427
21:00+24в34815 0.0 1013359
17 апреля, сб
сб1700:00+24в34825 0.0 1012349
03:00+24в23843 0.0 1011322
06:00+23в23844 0.0 1012332
09:00+27вюв34692 0.0 1013965
12:00+28юв44630 0.0 10111028
15:00+28юв446516 0.0 1009884
18:00+25вюв35773 0.0 1010384
21:00+24в34830 0.0 1012350
18 апреля, вс
вс1800:00+24всв23844 0.0 1011253
03:00+23в238544 0.0 1010259
06:00+23в24857 0.0 1011308
09:00+27вюв357120 0.0 1012851
12:00+29юв556443 0.0 10111067
15:00+28вюв556814 0.1 1009699
18:00+26вюв46785 0.2 1010449
21:00+25в34836 0.0 1012324
19 апреля, пн
пн1900:00+24в358751 0.1 1012295
03:00+25вюв468799 0.7 1011561
06:00+25в468631 0.9 1011428
09:00+27в467632 0.4 1013830
12:00+27вюв56809 1.3 1012757
15:00+26вюв578818 2.4 1011650
18:00+25в358920 3.5 1012386
21:00+25в358940 0.2 1014394